,,Stat5,,Stat1,,Stat2,,Stat3,,Stat4,,Wind1,,Wind1,
time,status,PA1M_AVG,status,PR1M_SUM,status,RH1M_AVG,status,SR1M_AVG,status,TA1M_AVG,status,W1dAve1m,status,W1sAve1m,
2003-09-15, 00:00:00,VALID,918.881,VALID,0,VALID,99.737,VALID,-0.0169808,VALID,17.8378,VALID,124,VALID,0.95148,
2003-09-15, 00:01:01,VALID,918.877,VALID,0,VALID,99.6289,VALID,0,VALID,17.8216,VALID,116,VALID,0.923353,
2003-09-15, 00:02:01,VALID,918.869,VALID,0,VALID,99.512,VALID,0,VALID,17.8152,VALID,110,VALID,0.977407,
2003-09-15, 00:03:00,VALID,918.86,VALID,0,VALID,99.3988,VALID,0,VALID,17.8117,VALID,116,VALID,0.954728,
2003-09-15, 00:04:01,VALID,918.848,VALID,0,VALID,99.2869,VALID,0,VALID,17.8246,VALID,106,VALID,0.813281,
2003-09-15, 00:05:01,VALID,918.831,VALID,0,VALID,99.2195,VALID,0.0169808,VALID,17.8249,VALID,115,VALID,1.03506,
2003-09-15, 00:06:01,VALID,918.822,VALID,0,VALID,99.175,VALID,0,VALID,17.8219,VALID,130,VALID,1.51194,
2003-09-15, 00:07:01,VALID,918.812,VALID,0,VALID,99.1343,VALID,0,VALID,17.8279,VALID,131,VALID,1.6079,
2003-09-15, 00:08:01,VALID,918.802,VALID,0,VALID,99.0885,VALID,0,VALID,17.8507,VALID,130,VALID,1.28008,
2003-09-15, 00:09:01,VALID,918.81,VALID,0,VALID,99.0529,VALID,0,VALID,17.8662,VALID,122,VALID,1.31811,
2003-09-15, 00:10:00,VALID,918.804,VALID,0,VALID,98.9893,VALID,0,VALID,17.8696,VALID,124,VALID,1.17417,
2003-09-15, 00:11:01,VALID,918.801,VALID,0,VALID,98.9181,VALID,0,VALID,17.8862,VALID,108,VALID,0.879729,
2003-09-15, 00:12:01,VALID,918.797,VALID,0,VALID,98.8126,VALID,0,VALID,17.8541,VALID,96,VALID,0.913194,
2003-09-15, 00:13:01,VALID,918.79,VALID,0,VALID,98.8914,VALID,0,VALID,17.815,VALID,115,VALID,1.06814,
2003-09-15, 00:14:01,VALID,918.781,VALID,0,VALID,98.8901,VALID,0,VALID,17.835,VALID,120,VALID,1.16533,
2003-09-15, 00:15:01,VALID,918.769,VALID,0,VALID,98.735,VALID,-0.0169808,VALID,17.8572,VALID,79,VALID,0.735403,
2003-09-15, 00:16:01,VALID,918.746,VALID,0,VALID,98.5405,VALID,0.0169808,VALID,17.809,VALID,63,VALID,0.812283,
2003-09-15, 00:17:01,VALID,918.754,VALID,0,VALID,98.7185,VALID,0,VALID,17.7603,VALID,87,VALID,0.855574,
2003-09-15, 00:18:01,VALID,918.748,VALID,0,VALID,98.9156,VALID,-0.0169808,VALID,17.7702,VALID,97,VALID,1.08529,
2003-09-15, 00:19:01,VALID,918.746,VALID,0,VALID,98.9245,VALID,-0.0169808,VALID,17.7864,VALID,100,VALID,1.10567,
2003-09-15, 00:20:01,VALID,918.745,VALID,0,VALID,98.8011,VALID,0,VALID,17.8285,VALID,113,VALID,1.06147,
2003-09-15, 00:21:01,VALID,918.726,VALID,0,VALID,98.7134,VALID,-0.0169808,VALID,17.8475,VALID,131,VALID,1.05067,
2003-09-15, 00:22:01,VALID,918.709,VALID,0,VALID,98.6371,VALID,-0.0169808,VALID,17.8569,VALID,127,VALID,1.40925,
2003-09-15, 00:23:01,VALID,918.685,VALID,0,VALID,98.6028,VALID,-0.0339617,VALID,17.8634,VALID,119,VALID,1.02367,
2003-09-15, 00:24:01,VALID,918.677,VALID,0,VALID,98.6142,VALID,0,VALID,17.8705,VALID,118,VALID,1.40765,
2003-09-15, 00:25:01,VALID,918.648,VALID,0,VALID,98.6282,VALID,0,VALID,17.88,VALID,116,VALID,1.33774,
2003-09-15, 00:26:01,VALID,918.639,VALID,0,VALID,98.5608,VALID,0,VALID,17.9053,VALID,118,VALID,1.26563,
2003-09-15, 00:27:01,VALID,918.625,VALID,0,VALID,98.5239,VALID,0,VALID,17.912,VALID,125,VALID,1.23585,
2003-09-15, 00:28:01,VALID,918.609,VALID,0,VALID,98.4718,VALID,0,VALID,17.9351,VALID,128,VALID,1.36098,
2003-09-15, 00:29:01,VALID,918.593,VALID,0,VALID,98.4311,VALID,0,VALID,17.9277,VALID,132,VALID,1.29258,
2003-09-15, 00:30:01,VALID,918.562,VALID,0,VALID,98.4298,VALID,0,VALID,17.9346,VALID,126,VALID,1.13482,
2003-09-15, 00:31:00,VALID,918.528,VALID,0,VALID,98.4603,VALID,0,VALID,17.9249,VALID,118,VALID,1.11677,
2003-09-15, 00:32:00,VALID,918.507,VALID,0,VALID,98.487,VALID,-0.0339617,VALID,17.9284,VALID,120,VALID,1.03721,
2003-09-15, 00:33:00,VALID,918.476,VALID,0,VALID,98.5036,VALID,0,VALID,17.9252,VALID,125,VALID,1.15603,
2003-09-15, 00:34:00,VALID,918.46,VALID,0,VALID,98.4629,VALID,0,VALID,17.9183,VALID,121,VALID,1.30208,
2003-09-15, 00:35:00,VALID,918.434,VALID,0,VALID,98.3256,VALID,0,VALID,17.9478,VALID,122,VALID,0.887035,
2003-09-15, 00:36:00,VALID,918.434,VALID,0,VALID,98.2086,VALID,0,VALID,17.9697,VALID,130,VALID,0.88384,
2003-09-15, 00:37:00,VALID,918.431,VALID,0,VALID,98.1234,VALID,0,VALID,17.9798,VALID,123,VALID,0.979384,
2003-09-15, 00:38:00,VALID,918.435,VALID,0,VALID,98.0305,VALID,0,VALID,17.9798,VALID,111,VALID,0.664907,
2003-09-15, 00:39:00,VALID,918.447,VALID,0,VALID,97.9911,VALID,-0.0169808,VALID,17.9637,VALID,112,VALID,0.380208,
2003-09-15, 00:40:00,VALID,918.457,VALID,0,VALID,97.9937,VALID,0,VALID,17.9319,VALID,115,VALID,0.335115,
2003-09-15, 00:41:00,VALID,918.463,VALID,0,VALID,98.1691,VALID,-0.0169808,VALID,17.886,VALID,126,VALID,0.461143,
2003-09-15, 00:42:00,VALID,918.455,VALID,0,VALID,98.3624,VALID,-0.0169808,VALID,17.8638,VALID,141,VALID,0.492634,
2003-09-15, 00:43:00,VALID,918.445,VALID,0,VALID,98.5061,VALID,0,VALID,17.838,VALID,138,VALID,0.879607,
2003-09-15, 00:44:00,VALID,918.422,VALID,0,VALID,98.6473,VALID,0,VALID,17.8087,VALID,139,VALID,0.932528,
2003-09-15, 00:45:00,VALID,918.404,VALID,0,VALID,98.8329,VALID,-0.0169808,VALID,17.7958,VALID,143,VALID,1.13482,
2003-09-15, 00:46:00,VALID,918.399,VALID,0,VALID,99.0033,VALID,0,VALID,17.7859,VALID,146,VALID,1.2482,
2003-09-15, 00:47:00,VALID,918.4,VALID,0,VALID,99.0605,VALID,-0.0169808,VALID,17.8251,VALID,146,VALID,0.985814,
2003-09-15, 00:48:00,VALID,918.389,VALID,0,VALID,99.03,VALID,-0.0169808,VALID,17.838,VALID,148,VALID,1.06524,
2003-09-15, 00:49:00,VALID,918.391,VALID,0,VALID,98.9957,VALID,-0.0339617,VALID,17.8509,VALID,149,VALID,1.22495,
2003-09-15, 00:50:00,VALID,918.381,VALID,0,VALID,98.9741,VALID,0,VALID,17.8767,VALID,145,VALID,1.18223,
2003-09-15, 00:51:00,VALID,918.372,VALID,0,VALID,98.9614,VALID,0,VALID,17.8795,VALID,148,VALID,1.248,
2003-09-15, 00:52:00,VALID,918.358,VALID,0,VALID,98.9308,VALID,-0.0339617,VALID,17.8924,VALID,150,VALID,1.18919,
2003-09-15, 00:53:00,VALID,918.362,VALID,0,VALID,98.8723,VALID,0,VALID,17.9196,VALID,147,VALID,1.02138,
2003-09-15, 00:54:00,VALID,918.382,VALID,0,VALID,98.8113,VALID,-0.0339617,VALID,17.9056,VALID,144,VALID,0.982639,
2003-09-15, 00:55:00,VALID,918.36,VALID,0,VALID,98.8418,VALID,-0.0169808,VALID,17.8991,VALID,143,VALID,0.952691,
2003-09-15, 00:56:00,VALID,918.342,VALID,0,VALID,98.838,VALID,0,VALID,17.9021,VALID,139,VALID,0.888302,
2003-09-15, 00:57:00,VALID,918.32,VALID,0,VALID,98.8189,VALID,0.0169808,VALID,17.9189,VALID,123,VALID,0.87685,
2003-09-15, 00:58:00,VALID,918.29,VALID,0,VALID,98.7757,VALID,0,VALID,17.9222,VALID,119,VALID,0.683594,
2003-09-15, 00:59:00,VALID,918.272,VALID,0,VALID,98.7554,VALID,0,VALID,17.9222,VALID,111,VALID,0.901182,
2003-09-15, 01:00:00,VALID,918.254,VALID,0,VALID,98.7337,VALID,-0.0169808,VALID,17.9514,VALID,114,VALID,0.767795,
2003-09-15, 01:01:00,VALID,918.236,VALID,0,VALID,98.6358,VALID,-0.0169808,VALID,17.9607,VALID,119,VALID,0.70148,
2003-09-15, 01:02:00,VALID,918.226,VALID,0,VALID,98.6396,VALID,0,VALID,17.9701,VALID,122,VALID,0.788446,
2003-09-15, 01:03:00,VALID,918.205,VALID,0,VALID,98.5659,VALID,0,VALID,18.0091,VALID,119,VALID,0.841071,
2003-09-15, 01:04:00,VALID,918.207,VALID,0,VALID,98.4209,VALID,0,VALID,18.025,VALID,110,VALID,1.01943,
2003-09-15, 01:05:00,VALID,918.196,VALID,0,VALID,98.281,VALID,-0.0169808,VALID,18.0382,VALID,99,VALID,1.08854,
2003-09-15, 01:06:00,VALID,918.181,VALID,0,VALID,98.0865,VALID,-0.0169808,VALID,18.0414,VALID,88,VALID,1.03606,
2003-09-15, 01:07:00,VALID,918.176,VALID,0,VALID,97.8474,VALID,0,VALID,17.9962,VALID,76,VALID,0.869391,
2003-09-15, 01:08:00,VALID,918.177,VALID,0,VALID,97.6885,VALID,0,VALID,17.8959,VALID,61,VALID,1.06106,
2003-09-15, 01:09:00,VALID,918.177,VALID,0,VALID,98.1017,VALID,-0.0169808,VALID,17.8346,VALID,80,VALID,1.16111,
2003-09-15, 01:10:00,VALID,918.187,VALID,0,VALID,98.5824,VALID,0.0169808,VALID,17.8279,VALID,103,VALID,1.15602,
2003-09-15, 01:11:00,VALID,918.171,VALID,0,VALID,98.8634,VALID,0.0169808,VALID,17.8632,VALID,116,VALID,1.02871,
2003-09-15, 01:12:00,VALID,918.159,VALID,0,VALID,98.9893,VALID,-0.0509425,VALID,17.9192,VALID,110,VALID,1.17668,
2003-09-15, 01:13:00,VALID,918.135,VALID,0,VALID,99.1318,VALID,-0.0509425,VALID,17.9805,VALID,119,VALID,1.36233,
2003-09-15, 01:14:00,VALID,918.122,VALID,0,VALID,98.9779,VALID,-0.0679233,VALID,18.0617,VALID,115,VALID,1.07586,
2003-09-15, 01:15:00,VALID,918.121,VALID,0,VALID,98.8304,VALID,-0.0679233,VALID,18.1322,VALID,114,VALID,1.03082,
2003-09-15, 01:16:00,VALID,918.108,VALID,0,VALID,98.7274,VALID,-0.0679233,VALID,18.1807,VALID,124,VALID,0.703993,
2003-09-15, 01:17:00,VALID,918.11,VALID,0,VALID,98.5722,VALID,-0.0169808,VALID,18.2132,VALID,119,VALID,0.850084,
2003-09-15, 01:18:00,VALID,918.12,VALID,0,VALID,98.4985,VALID,-0.0509425,VALID,18.2291,VALID,116,VALID,0.700452,
2003-09-15, 01:19:00,VALID,918.113,VALID,0,VALID,98.3548,VALID,-0.0679233,VALID,18.2328,VALID,123,VALID,0.950738,
2003-09-15, 01:20:00,VALID,918.12,VALID,0,VALID,98.2798,VALID,-0.0849042,VALID,18.2097,VALID,119,VALID,1.12838,
2003-09-15, 01:21:00,VALID,918.124,VALID,0,VALID,98.2467,VALID,-0.0849042,VALID,18.2141,VALID,107,VALID,0.821615,
2003-09-15, 01:22:00,VALID,918.131,VALID,0,VALID,98.1615,VALID,-0.101885,VALID,18.201,VALID,96,VALID,0.533923,
2003-09-15, 01:23:00,VALID,918.135,VALID,0,VALID,98.206,VALID,-0.0849042,VALID,18.1774,VALID,98,VALID,0.568051,
2003-09-15, 01:24:00,VALID,918.122,VALID,0,VALID,98.3523,VALID,-0.0679233,VALID,18.1747,VALID,107,VALID,0.564955,
2003-09-15, 01:25:00,VALID,918.106,VALID,0,VALID,98.337,VALID,-0.0509425,VALID,18.1546,VALID,107,VALID,0.574319,
2003-09-15, 01:26:00,VALID,918.09,VALID,0,VALID,98.5048,VALID,-0.0679233,VALID,18.1456,VALID,93,VALID,0.796165,
2003-09-15, 01:27:00,VALID,918.07,VALID,0,VALID,98.6295,VALID,0.0169808,VALID,18.1636,VALID,94,VALID,0.746194,
2003-09-15, 01:28:00,VALID,918.054,VALID,0,VALID,98.7108,VALID,0.0169808,VALID,18.2026,VALID,98,VALID,0.878806,
2003-09-15, 01:29:00,VALID,918.035,VALID,0,VALID,98.6053,VALID,0,VALID,18.2446,VALID,97,VALID,0.82648,
2003-09-15, 01:30:00,VALID,918.032,VALID,0,VALID,98.3243,VALID,0,VALID,18.2446,VALID,87,VALID,0.741343,
2003-09-15, 01:31:00,VALID,918.011,VALID,0,VALID,98.2073,VALID,0.0339617,VALID,18.2021,VALID,76,VALID,0.68773,
2003-09-15, 01:32:00,VALID,917.988,VALID,0,VALID,98.0598,VALID,0.0509425,VALID,18.1542,VALID,75,VALID,0.473242,
2003-09-15, 01:33:00,VALID,917.973,VALID,0,VALID,98.1285,VALID,0.0169808,VALID,18.076,VALID,75,VALID,0.532652,
2003-09-15, 01:34:00,VALID,917.949,VALID,0,VALID,98.4654,VALID,0.0339617,VALID,18.0502,VALID,85,VALID,0.471706,
2003-09-15, 01:35:00,VALID,917.937,VALID,0,VALID,98.59,VALID,0,VALID,18.0469,VALID,94,VALID,0.35403,
2003-09-15, 01:36:00,VALID,917.911,VALID,0,VALID,98.5748,VALID,0.0339617,VALID,17.9985,VALID,103,VALID,0.305556,
2003-09-15, 01:37:00,VALID,917.894,VALID,0,VALID,98.6867,VALID,0.0169808,VALID,17.9471,VALID,108,VALID,0.527995,
2003-09-15, 01:38:00,VALID,917.878,VALID,0,VALID,98.8749,VALID,0.0169808,VALID,17.9245,VALID,117,VALID,0.586149,
2003-09-15, 01:39:00,VALID,917.879,VALID,0,VALID,98.9512,VALID,0.0169808,VALID,17.8987,VALID,119,VALID,0.321957,
2003-09-15, 01:40:00,VALID,917.874,VALID,0,VALID,99.1457,VALID,0.0339617,VALID,17.8825,VALID,128,VALID,0.559896,
2003-09-15, 01:41:00,VALID,917.872,VALID,0,VALID,99.2538,VALID,0.0339617,VALID,17.8761,VALID,126,VALID,0.355574,
2003-09-15, 01:42:00,VALID,917.864,VALID,0,VALID,99.2195,VALID,0.0339617,VALID,17.8728,VALID,122,VALID,0.282986,
2003-09-15, 01:43:00,VALID,917.864,VALID,0,VALID,99.2157,VALID,0.0339617,VALID,17.847,VALID,122,VALID,0.408923,
2003-09-15, 01:44:00,VALID,917.869,VALID,0,VALID,99.3047,VALID,0.0339617,VALID,17.8175,VALID,122,VALID,0.377056,
2003-09-15, 01:45:00,VALID,917.891,VALID,0,VALID,99.2716,VALID,0.0169808,VALID,17.7887,VALID,122,VALID,0.372545,
2003-09-15, 01:46:00,VALID,917.898,VALID,0,VALID,99.4369,VALID,0.0169808,VALID,17.7728,VALID,122,VALID,0.440505,
2003-09-15, 01:47:00,VALID,917.888,VALID,0,VALID,99.5234,VALID,0.0169808,VALID,17.7728,VALID,121,VALID,0.396544,
2003-09-15, 01:48:00,VALID,917.897,VALID,0,VALID,99.5501,VALID,0,VALID,17.7764,VALID,121,VALID,0.571915,
2003-09-15, 01:49:00,VALID,917.89,VALID,0,VALID,99.6658,VALID,0.0169808,VALID,17.7795,VALID,124,VALID,0.539864,
2003-09-15, 01:50:00,VALID,917.884,VALID,0,VALID,99.7548,VALID,0,VALID,17.7986,VALID,130,VALID,0.509252,
2003-09-15, 01:51:00,VALID,917.882,VALID,0,VALID,99.7281,VALID,0.0169808,VALID,17.7921,VALID,139,VALID,0.837627,
2003-09-15, 01:52:00,VALID,917.872,VALID,0,VALID,99.7803,VALID,0,VALID,17.8087,VALID,145,VALID,1.01241,
2003-09-15, 01:53:00,VALID,917.843,VALID,0,VALID,99.8248,VALID,0,VALID,17.815,VALID,141,VALID,0.970312,
2003-09-15, 01:54:00,VALID,917.816,VALID,0,VALID,99.8324,VALID,0.0169808,VALID,17.8246,VALID,140,VALID,1.03385,
2003-09-15, 01:55:00,VALID,917.786,VALID,0,VALID,99.8896,VALID,-0.0169808,VALID,17.8371,VALID,135,VALID,0.902449,
2003-09-15, 01:56:00,VALID,917.773,VALID,0,VALID,99.8934,VALID,0.0169808,VALID,17.8567,VALID,142,VALID,0.978618,
2003-09-15, 01:57:00,VALID,917.772,VALID,0,VALID,99.9468,VALID,0.0509425,VALID,17.886,VALID,149,VALID,1.12457,
2003-09-15, 01:58:00,VALID,917.76,VALID,0,VALID,99.9418,VALID,0.0339617,VALID,17.9146,VALID,146,VALID,1.10612,
2003-09-15, 01:59:00,VALID,917.756,VALID,0,VALID,99.9201,VALID,0,VALID,17.9473,VALID,153,VALID,1.12732,
2003-09-15, 02:00:00,VALID,917.754,VALID,0,VALID,99.8871,VALID,0.0169808,VALID,17.9731,VALID,154,VALID,0.89412,
2003-09-15, 02:01:00,VALID,917.756,VALID,0,VALID,99.8413,VALID,0.0679233,VALID,18.0015,VALID,144,VALID,0.666884,
2003-09-15, 02:02:00,VALID,917.743,VALID,0,VALID,99.6849,VALID,0.0169808,VALID,18.0052,VALID,68,VALID,0.628378,
2003-09-15, 02:03:00,VALID,917.732,VALID,0,VALID,99.4942,VALID,0.0339617,VALID,17.9568,VALID,21,VALID,0.593316,
2003-09-15, 02:04:00,VALID,917.734,VALID,0,VALID,99.4408,VALID,0.0339617,VALID,17.9247,VALID,13,VALID,0.883018,
2003-09-15, 02:05:00,VALID,917.729,VALID,0,VALID,99.4738,VALID,0.0169808,VALID,17.9053,VALID,6,VALID,1.0259,
2003-09-15, 02:06:00,VALID,917.712,VALID,0,VALID,99.5488,VALID,0.0339617,VALID,17.9017,VALID,22,VALID,0.931696,
2003-09-15, 02:07:00,VALID,917.676,VALID,0,VALID,99.517,VALID,0.0339617,VALID,17.8989,VALID,55,VALID,0.922276,
2003-09-15, 02:08:00,VALID,917.621,VALID,0,VALID,99.559,VALID,0,VALID,17.8791,VALID,64,VALID,1.23248,
2003-09-15, 02:09:00,VALID,917.568,VALID,0,VALID,99.5323,VALID,0,VALID,17.8761,VALID,54,VALID,1.13381,
2003-09-15, 02:10:00,VALID,917.535,VALID,0,VALID,99.5183,VALID,0.0169808,VALID,17.8569,VALID,46,VALID,1.15865,
2003-09-15, 02:11:00,VALID,917.511,VALID,0,VALID,99.5348,VALID,0.0169808,VALID,17.8346,VALID,43,VALID,0.96361,
2003-09-15, 02:12:00,VALID,917.504,VALID,0,VALID,99.5005,VALID,0,VALID,17.8053,VALID,48,VALID,0.853463,
2003-09-15, 02:13:00,VALID,917.487,VALID,0,VALID,99.4649,VALID,-0.0169808,VALID,17.7573,VALID,44,VALID,0.76011,
2003-09-15, 02:14:00,VALID,917.488,VALID,0,VALID,99.4547,VALID,0,VALID,17.7216,VALID,36,VALID,0.791016,
2003-09-15, 02:15:00,VALID,917.499,VALID,0,VALID,99.5679,VALID,0,VALID,17.6992,VALID,24,VALID,0.915064,
2003-09-15, 02:16:00,VALID,917.502,VALID,0,VALID,99.7167,VALID,-0.0339617,VALID,17.702,VALID,22,VALID,0.445313,
2003-09-15, 02:17:00,VALID,917.496,VALID,0,VALID,99.9425,VALID,0,VALID,17.7608,VALID,22,VALID,0.273232,
2003-09-15, 02:18:00,VALID,917.485,VALID,0,VALID,100,VALID,0,VALID,17.8281,VALID,22,VALID,0.175781,
2003-09-15, 02:19:00,VALID,917.485,VALID,0,VALID,100,VALID,0,VALID,17.8569,VALID,22,VALID,0.0429688,
2003-09-15, 02:20:00,VALID,917.465,VALID,0,VALID,100,VALID,0,VALID,17.8703,VALID,22,VALID,0.0126689,
2003-09-15, 02:21:00,VALID,917.476,VALID,0,VALID,100,VALID,0,VALID,17.8696,VALID,22,VALID,0,
2003-09-15, 02:22:00,VALID,917.453,VALID,0,VALID,100,VALID,0,VALID,17.9093,VALID,22,VALID,0.294054,
2003-09-15, 02:23:00,VALID,917.441,VALID,0,VALID,100,VALID,0,VALID,17.8957,VALID,22,VALID,0.410262,
2003-09-15, 02:24:00,VALID,917.452,VALID,0,VALID,100,VALID,0,VALID,17.8634,VALID,22,VALID,0.279297,
2003-09-15, 02:25:00,VALID,917.458,VALID,0,VALID,99.9227,VALID,0,VALID,17.809,VALID,22,VALID,0.528577,
2003-09-15, 02:26:00,VALID,917.473,VALID,0,VALID,99.8604,VALID,0.0169808,VALID,17.767,VALID,22,VALID,0.47389,
2003-09-15, 02:27:00,VALID,917.474,VALID,0,VALID,99.826,VALID,-0.0169808,VALID,17.7151,VALID,22,VALID,0.320536,
2003-09-15, 02:28:00,VALID,917.471,VALID,0,VALID,99.8578,VALID,0,VALID,17.6925,VALID,22,VALID,0.350962,
2003-09-15, 02:29:00,VALID,917.462,VALID,0,VALID,99.8909,VALID,-0.0339617,VALID,17.6729,VALID,22,VALID,0.26089,
2003-09-15, 02:30:00,VALID,917.476,VALID,0,VALID,99.8934,VALID,-0.0169808,VALID,17.6538,VALID,23,VALID,0.325721,
2003-09-15, 02:31:00,VALID,917.484,VALID,0,VALID,99.9507,VALID,0,VALID,17.651,VALID,23,VALID,0.0933494,
2003-09-15, 02:32:00,VALID,917.489,VALID,0,VALID,99.9977,VALID,0,VALID,17.6637,VALID,23,VALID,0,
2003-09-15, 02:33:00,VALID,917.507,VALID,0,VALID,100,VALID,0,VALID,17.6697,VALID,23,VALID,0,
2003-09-15, 02:34:00,VALID,917.516,VALID,0,VALID,100,VALID,-0.0169808,VALID,17.6865,VALID,23,VALID,0,
2003-09-15, 02:35:00,VALID,917.532,VALID,0,VALID,100,VALID,-0.0339617,VALID,17.716,VALID,23,VALID,0,
2003-09-15, 02:36:00,VALID,917.539,VALID,0,VALID,100,VALID,-0.0339617,VALID,17.7282,VALID,23,VALID,0,
2003-09-15, 02:37:00,VALID,917.547,VALID,0,VALID,100,VALID,0,VALID,17.7448,VALID,23,VALID,0,
2003-09-15, 02:38:00,VALID,917.557,VALID,0,VALID,100,VALID,0,VALID,17.7382,VALID,23,VALID,0,
2003-09-15, 02:39:00,VALID,917.558,VALID,0,VALID,100,VALID,-0.0169808,VALID,17.7543,VALID,23,VALID,0,
2003-09-15, 02:40:00,VALID,917.578,VALID,0,VALID,100,VALID,-0.0509425,VALID,17.7737,VALID,23,VALID,0,
2003-09-15, 02:41:00,VALID,917.603,VALID,0,VALID,100,VALID,0,VALID,17.844,VALID,23,VALID,0,
2003-09-15, 02:42:00,VALID,917.617,VALID,0,VALID,100,VALID,-0.0339617,VALID,17.9319,VALID,23,VALID,0,
2003-09-15, 02:43:00,VALID,917.638,VALID,0,VALID,100,VALID,-0.0169808,VALID,17.987,VALID,23,VALID,0,
2003-09-15, 02:44:00,VALID,917.648,VALID,0,VALID,100,VALID,0,VALID,18.0156,VALID,23,VALID,0.285473,
2003-09-15, 02:45:00,VALID,917.653,VALID,0,VALID,100,VALID,-0.0169808,VALID,18.0571,VALID,23,VALID,0.0681424,
2003-09-15, 02:46:00,VALID,917.659,VALID,0,VALID,100,VALID,-0.0339617,VALID,18.0769,VALID,23,VALID,0,
2003-09-15, 02:47:00,VALID,917.659,VALID,0,VALID,100,VALID,0,VALID,18.0767,VALID,23,VALID,0,
2003-09-15, 02:48:00,VALID,917.656,VALID,0,VALID,100,VALID,-0.0169808,VALID,18.0698,VALID,23,VALID,0.0837054,
2003-09-15, 02:49:00,VALID,917.646,VALID,0,VALID,100,VALID,-0.0339617,VALID,18.093,VALID,23,VALID,0.133614,
2003-09-15, 02:50:00,VALID,917.642,VALID,0,VALID,100,VALID,0,VALID,18.0995,VALID,23,VALID,0.133759,
2003-09-15, 02:51:00,VALID,917.612,VALID,0,VALID,100,VALID,-0.0169808,VALID,18.129,VALID,62,VALID,0.194712,
2003-09-15, 02:52:00,VALID,917.609,VALID,0,VALID,100,VALID,-0.0169808,VALID,18.1546,VALID,178,VALID,0.177083,
2003-09-15, 02:53:00,VALID,917.58,VALID,0,VALID,100,VALID,0,VALID,18.1666,VALID,138,VALID,0.10403,
2003-09-15, 02:54:00,VALID,917.595,VALID,0,VALID,100,VALID,-0.0169808,VALID,18.1445,VALID,138,VALID,0.0586993,
2003-09-15, 02:55:00,VALID,917.58,VALID,0,VALID,100,VALID,0,VALID,18.1839,VALID,138,VALID,0.0769761,
2003-09-15, 02:56:00,VALID,917.584,VALID,0,VALID,100,VALID,-0.0339617,VALID,18.1934,VALID,138,VALID,0.0267578,
2003-09-15, 02:57:00,VALID,917.578,VALID,0,VALID,100,VALID,-0.0509425,VALID,18.177,VALID,161,VALID,0.543069,
2003-09-15, 02:58:00,VALID,917.582,VALID,0,VALID,100,VALID,0,VALID,18.1927,VALID,140,VALID,0.444679,
2003-09-15, 02:59:00,VALID,917.58,VALID,0,VALID,100,VALID,0.0169808,VALID,18.2411,VALID,191,VALID,0.459087,
2003-09-15, 03:00:00,VALID,917.589,VALID,0,VALID,100,VALID,0,VALID,18.3091,VALID,23,VALID,0.580078,
2003-09-15, 03:01:00,VALID,917.605,VALID,0,VALID,100,VALID,0,VALID,18.3128,VALID,32,VALID,0.248915,
2003-09-15, 03:02:00,VALID,917.627,VALID,0,VALID,99.9929,VALID,0,VALID,18.361,VALID,32,VALID,0.0420186,
2003-09-15, 03:03:00,VALID,917.627,VALID,0,VALID,99.9329,VALID,0,VALID,18.4,VALID,32,VALID,0,
2003-09-15, 03:04:00,VALID,917.635,VALID,0,VALID,99.6798,VALID,0,VALID,18.3834,VALID,32,VALID,0.0279948,
2003-09-15, 03:05:00,VALID,917.61,VALID,0,VALID,99.3301,VALID,0,VALID,18.3029,VALID,32,VALID,0.0834037,
2003-09-15, 03:06:00,VALID,917.619,VALID,0,VALID,99.2971,VALID,0,VALID,18.2473,VALID,32,VALID,0,
2003-09-15, 03:07:00,VALID,917.635,VALID,0,VALID,99.3365,VALID,-0.0169808,VALID,18.2381,VALID,32,VALID,0,
2003-09-15, 03:08:00,VALID,917.648,VALID,0,VALID,99.3047,VALID,0,VALID,18.2155,VALID,32,VALID,0,
2003-09-15, 03:09:00,VALID,917.643,VALID,0,VALID,99.3594,VALID,-0.0339617,VALID,18.1901,VALID,32,VALID,0.262277,
2003-09-15, 03:10:00,VALID,917.65,VALID,0,VALID,99.5666,VALID,-0.0169808,VALID,18.1961,VALID,32,VALID,0.115785,
2003-09-15, 03:11:00,VALID,917.652,VALID,0,VALID,99.545,VALID,0,VALID,18.2256,VALID,32,VALID,0,
2003-09-15, 03:12:00,VALID,917.666,VALID,0,VALID,99.4331,VALID,0,VALID,18.2026,VALID,32,VALID,0,
2003-09-15, 03:13:00,VALID,917.669,VALID,0,VALID,99.3835,VALID,0,VALID,18.1735,VALID,117,VALID,0.419872,
2003-09-15, 03:14:00,VALID,917.655,VALID,0,VALID,99.5005,VALID,0,VALID,18.1832,VALID,183,VALID,0.496505,
2003-09-15, 03:15:00,VALID,917.651,VALID,0,VALID,99.5285,VALID,0.0169808,VALID,18.1994,VALID,207,VALID,0.155405,
2003-09-15, 03:16:00,VALID,917.65,VALID,0,VALID,99.5616,VALID,0.0169808,VALID,18.2021,VALID,245,VALID,0.414292,
2003-09-15, 03:17:00,VALID,917.636,VALID,0,VALID,99.6099,VALID,0,VALID,18.2411,VALID,311,VALID,0.205664,
2003-09-15, 03:18:00,VALID,917.639,VALID,0,VALID,99.6111,VALID,0.0169808,VALID,18.257,VALID,351,VALID,0.466346,
2003-09-15, 03:19:00,VALID,917.633,VALID,0,VALID,99.2386,VALID,-0.0169808,VALID,18.1636,VALID,15,VALID,0.414907,
2003-09-15, 03:20:00,VALID,917.638,VALID,0,VALID,99.2119,VALID,0.0339617,VALID,18.112,VALID,16,VALID,0.406661,
2003-09-15, 03:21:00,VALID,917.65,VALID,0,VALID,99.2347,VALID,0,VALID,18.1152,VALID,14,VALID,1.00282,
2003-09-15, 03:22:00,VALID,917.641,VALID,0,VALID,99.2729,VALID,0,VALID,18.0924,VALID,21,VALID,0.774957,
2003-09-15, 03:23:00,VALID,917.669,VALID,0,VALID,99.456,VALID,0.0169808,VALID,18.1246,VALID,20,VALID,0.63598,
2003-09-15, 03:24:00,VALID,917.667,VALID,0,VALID,99.573,VALID,0,VALID,18.1604,VALID,20,VALID,0.924548,
2003-09-15, 03:25:00,VALID,917.663,VALID,0,VALID,99.5972,VALID,0.0339617,VALID,18.1761,VALID,4,VALID,0.854384,
2003-09-15, 03:26:00,VALID,917.668,VALID,0,VALID,99.6569,VALID,0.0169808,VALID,18.2054,VALID,350,VALID,0.105152,
2003-09-15, 03:27:00,VALID,917.647,VALID,0,VALID,99.7078,VALID,0.0169808,VALID,18.2383,VALID,22,VALID,0.411241,
2003-09-15, 03:28:00,VALID,917.647,VALID,0,VALID,99.7866,VALID,0.0169808,VALID,18.2672,VALID,27,VALID,0.718956,
2003-09-15, 03:29:00,VALID,917.653,VALID,0,VALID,99.8044,VALID,0,VALID,18.2921,VALID,339,VALID,0.175164,
2003-09-15, 03:30:00,VALID,917.666,VALID,0,VALID,99.8426,VALID,0.0169808,VALID,18.341,VALID,61,VALID,0.604464,
2003-09-15, 03:31:00,VALID,917.678,VALID,0,VALID,99.7675,VALID,0.0339617,VALID,18.3702,VALID,46,VALID,0.249199,
2003-09-15, 03:32:00,VALID,917.699,VALID,0,VALID,99.7218,VALID,0,VALID,18.3799,VALID,28,VALID,0.290246,
2003-09-15, 03:33:00,VALID,917.687,VALID,0,VALID,99.6544,VALID,0,VALID,18.3829,VALID,28,VALID,0.000400641,
2003-09-15, 03:34:00,VALID,917.696,VALID,0,VALID,99.6048,VALID,-0.0169808,VALID,18.3765,VALID,30,VALID,0.643029,
2003-09-15, 03:35:00,VALID,917.678,VALID,0,VALID,99.5463,VALID,0,VALID,18.3762,VALID,26,VALID,0.311883,
2003-09-15, 03:36:00,VALID,917.664,VALID,0,VALID,99.5539,VALID,0,VALID,18.3765,VALID,21,VALID,0.744721,
2003-09-15, 03:37:00,VALID,917.639,VALID,0,VALID,99.5412,VALID,0,VALID,18.3862,VALID,278,VALID,0.907399,
2003-09-15, 03:38:00,VALID,917.664,VALID,0,VALID,99.545,VALID,0,VALID,18.3991,VALID,197,VALID,0.235742,
2003-09-15, 03:39:00,VALID,917.676,VALID,0,VALID,99.5946,VALID,0,VALID,18.4249,VALID,3,VALID,0.570713,
2003-09-15, 03:40:00,VALID,917.697,VALID,0,VALID,99.5336,VALID,0.0169808,VALID,18.4473,VALID,332,VALID,0.0527872,
2003-09-15, 03:41:00,VALID,917.711,VALID,0,VALID,99.4306,VALID,0,VALID,18.4507,VALID,10,VALID,0.711349,